Volver al catálogo

STARLINK-37026

ActivoComunicacionesVLEO
NORAD 68075·PAYLOAD·🇺🇸 United States

Lanzado Mar 4, 2026 desde Vandenberg Space Force Base

Loading…

Próximos Pases (próximas 24 horas)

TLE

ActualizadoSource: CelesTrak SupGP

Época: Sep 14, 2026, 22:58 UTC

1 68075C 26042G   26257.95743056 -.00006240  00000+0 -18440-3 0  2571
2 68075  53.1591  15.8830 0001196  81.1354 339.7038 15.34388080    10

Sigue STARLINK-37026 en tiempo real con AllMySat

Download on the App Store